Location: Unspecified
(0.0000°N, 0.0000°E)
Time: 13:41:38
(UTC+00:00)

Vanguard 2 Rocket - Pass Details

Date: 26 November 2019
Orbit: 554 x 3326 km, 32.9° (Epoch: 08 December)

Event Time Altitude Azimuth Distance (km) Brightness Sun altitude
Rises 18:26:11 0° 236° (SW) 6,494 13.2 -9.1°
Reaches altitude 10° 18:31:07 10° 237° (WSW) 5,082 12.2 -10.2°
Maximum altitude 18:44:29 82° 323° (NW) 1,552 8.0 -13.3°
Enters shadow 18:50:26 18° 50° (NE) 2,482 8.5 -14.7°
